Regional Weather Roundup
Issued by NWS Cleveland, OH

Home | Current Version | Previous Version | Text Only | Print | Product List | Glossary On
Versions: 1 2 3 4 5 6 7 8 9 10 11 12 13 14 15 16 17 18 19 20 21 22 23 24 25 26 27 28 29 30 31 32 33 34 35 36 37 38 39 40 41 42 43 44 45 46 47 48 49 50
000
ASUS41 KCLE 021810
RWRCLE
OHIO REGIONAL WEATHER ROUNDUP
NATIONAL WEATHER SERVICE CLEVELAND, OH
200 PM EDT THU JUL 02 2015

NOTE: "FAIR" INDICATES FEW OR NO CLOUDS BELOW 12,000 FEET WITH NO
SIGNIFICANT WEATHER AND/OR OBSTRUCTIONS TO VISIBILITY.

OHZ001>008-015>018-024>027-034-035-043-044-021900-
   NORTHWEST OHIO

CITY           SKY/WX    TMP DP  RH WIND       PRES   REMARKS
DEFIANCE       PTSUNNY   73  56  54 NE12      29.98F
FINDLAY        MOSUNNY   74  56  53 E9        29.95F
TOLEDO EXPRESS PTSUNNY   70  55  59 E10       29.98F
TOLEDO EXEC      N/A     71  56  58 E10       30.00F
LIMA           PTSUNNY   71  61  70 NE10      29.96S
$$

OHZ009>014-019>023-028>033-038-089-021900-
   NORTHEAST OHIO

CITY           SKY/WX    TMP DP  RH WIND       PRES   REMARKS
CLE-HOPKINS    MOSUNNY   70  57  63 N15       30.00F
CLE-LAKEFRONT  SUNNY     68  59  73 N13       29.98F
CUY CO. ARPT   MOSUNNY   70  59  68 N14       29.99F
LORAIN-ELYRIA  MOSUNNY   70  56  61 NE8       29.99S
ASHTABULA      MOSUNNY   69  59  70 N8        29.99F
AKRON-CANTON   PTSUNNY   75  57  53 NE7       29.96F
WOOSTER        PTSUNNY   73  55  53 N6        29.97F
MANSFIELD      PTSUNNY   72  56  57 N5        29.97F
YOUNGSTOWN     PTSUNNY   73  54  51 N8        29.96F
$$

OHZ042-051>053-060>062-070>072-077>081-021900-
  SOUTHWEST OHIO

CITY           SKY/WX    TMP DP  RH WIND       PRES   REMARKS
CINC-COVINGTON CLOUDY    75  68  78 SE7       29.90S
CINC-LUNKEN    PTSUNNY   74  69  85 E6        29.89F
HAMILTON       PTSUNNY   75  68  78 VRB3      29.90F HAZE
DAYTON         CLOUDY    73  63  70 E10       29.94S
WRIGHT-PAT AFB MOSUNNY   73  62  69 NE9       29.92S
DAYTON GENERAL MOSUNNY   74  66  76 E6        29.91F
WILMINGTON     PTSUNNY   71  65  81 E9        29.92S HAZE
$$

OHZ036-037-039>041-045>050-054>059-063>069-073>076-082>088-021900-
  CENTRAL AND SOUTHEAST OHIO

CITY           SKY/WX    TMP DP  RH WIND       PRES   REMARKS
COLUMBUS       CLOUDY    69  61  75 SE6       29.95S
OSU AIRPORT    CLOUDY    71  61  70 E7        29.95F
BOLTON FIELD   CLOUDY    68  63  83 NE5       29.96S
RICKENBACK AFB NOT AVBL
NEWARK         LGT RAIN  71  62  73 E3        29.96S
MARION         CLOUDY    73  59  61 NE7       29.96F
LANCASTER      CLOUDY    70  63  78 NE10      29.95F
ZANESVILLE     NOT AVBL
NEW PHILLY     PTSUNNY   74  60  61 CALM      29.96F
$$


USA.gov is the U.S. government's official web portal to all federal, state and local government web resources and services.